Карточка аэропорта UATT

Внимание!
Информация на этой странице в стадии наполнения.
Если вы не увидели какой-то информации, или заметили неточность - пожалуйста сообщите нам!
Спасибо!
Команда RU-STAFF
Название аэропортаАктобе
Название аэропорта (англ.)Aktobe
Превышение738 ft. (224.9 m.)
Координаты50°14.748', 57°12.402'
Высота перехода10000ft
Эшелон переходаFL120, QNH<733:FL130
Коды ответчика3440-3447, 3540-3547
Зона ОрВДАктобе РПИ (UATT)
Данные METARUATT 090800Z 31007MPS 9000 -SN DRSN SCT008 M13/M16 Q1025 NOSIG RMK QFE749/0998
Проноз погоды (TAF)UATT 090501Z 0906/1006 30005MPS 3100 -SN BR BKN011 TXM10/0912Z TNM14/1002Z TEMPO 0906/0912 29010MPS 1000 SHSN BLSN BKN004 BKN015CB TEMPO 0912/0924 1000 BR BKN005
NOTAMshow/hide NOTAM
AWOS   TABLE

Информация о ВПП

ВПП Длина ВПП (м.) Покрытие Курс ВПП Частота ILS
133202Бетон135111.7
313202Бетон315111.7

Диспетчерские позиции




Спутниковое изображение